Theta_e
355 353 353 352 350 349 350 349 348 350 351 350 349 350 350 353 355 354 353 352 348 346 346 348 348 350 352 350 347 348 350 351 350 351 351 348 352 357 352 350 355 352 348 352 354 355 357 355 354 354 353 354 355 355 355 354 354 353 352 352 351 350 349 346 338 325 316 314 315 317 319 326 335 342
356 355 355 355 352 351 351 349 349 351 352 350 349 350 351 352 353 354 356 356 351 346 346 347 349 349 349 350 348 345 347 350 350 350 352 349 349 353 350 351 357 356 351 350 352 354 355 355 354 352 351 352 354 355 356 356 356 355 354 353 353 352 351 350 349 343 331 319 314 315 316 317 320 328
357 357 357 357 355 353 352 351 350 351 352 351 349 350 350 351 353 354 356 357 354 348 346 347 348 347 348 350 350 347 346 348 349 351 353 352 351 351 351 354 356 356 354 352 348 348 350 353 353 352 351 351 352 353 355 356 356 356 356 355 353 353 352 351 351 350 346 337 323 315 314 315 316 318
357 359 359 359 359 356 354 352 351 351 352 353 351 350 351 351 352 353 355 358 357 352 348 348 347 347 349 350 350 351 349 347 349 351 352 352 352 351 349 352 354 353 354 353 346 341 343 348 352 353 353 352 352 353 353 355 356 356 357 356 355 354 353 352 352 351 351 349 341 329 318 313 315 316
360 361 362 360 360 360 357 355 353 352 352 353 352 352 353 353 353 355 356 357 358 356 353 352 350 349 350 351 351 352 351 350 350 351 350 351 351 349 347 348 351 354 354 350 345 339 337 340 345 349 351 351 352 352 352 353 354 356 357 357 357 356 354 353 352 352 351 350 350 345 334 323 315 314
361 362 362 359 359 359 358 357 355 353 353 353 354 354 354 355 356 358 360 359 359 359 358 357 355 353 352 353 353 353 353 352 352 352 351 350 348 347 347 346 349 356 354 347 344 342 340 338 339 341 344 346 347 348 349 351 352 353 355 356 356 356 356 355 353 352 352 351 351 350 348 340 328 319
360 361 361 359 357 356 358 360 357 355 356 356 355 356 356 357 358 359 362 362 361 360 360 360 358 355 354 354 354 354 353 352 352 352 351 350 348 347 347 345 348 355 352 344 343 344 343 342 340 339 339 339 340 341 344 347 349 350 353 354 356 356 356 356 354 353 352 351 351 351 351 350 345 335
360 360 360 359 357 356 358 361 359 356 357 358 358 358 358 359 359 360 361 362 362 361 361 359 358 356 356 355 354 354 353 351 350 349 349 349 348 349 349 344 345 350 347 341 343 345 343 343 344 344 343 340 339 338 339 342 344 345 347 348 352 355 355 355 355 354 353 351 351 351 351 350 350 348
360 359 360 359 358 358 359 360 358 357 358 359 358 358 358 359 359 360 361 361 361 361 361 360 358 356 355 355 354 353 351 350 349 348 349 350 349 349 349 346 343 343 341 342 346 345 343 343 346 346 345 345 345 343 341 340 341 342 343 343 344 348 352 354 355 354 353 352 350 350 351 351 350 350
358 357 357 358 358 358 358 358 358 358 359 359 357 357 358 358 357 357 358 357 357 358 359 358 356 354 353 352 351 350 349 349 349 349 349 349 348 349 350 350 347 343 341 343 345 343 342 345 347 347 346 347 349 349 347 344 342 343 344 343 342 343 346 350 353 353 353 352 350 349 349 350 351 351
357 356 355 356 357 357 357 358 357 358 358 357 357 359 359 358 356 355 354 352 352 353 353 353 352 350 350 350 349 348 347 347 348 349 349 348 348 350 352 353 353 349 348 348 346 343 343 346 346 346 348 349 349 350 352 350 347 344 344 344 344 343 344 345 348 351 351 351 350 349 348 348 350 351
357 356 356 356 356 356 357 358 357 357 359 359 360 360 359 358 357 356 354 352 353 353 351 351 351 351 350 350 348 346 346 347 347 347 347 348 349 352 352 352 352 352 352 351 347 345 346 347 347 347 349 350 350 349 351 351 350 348 345 344 344 344 345 345 345 346 349 350 350 349 348 348 349 349
355 355 355 355 355 356 358 359 359 357 357 357 359 359 360 359 359 358 357 356 355 354 354 352 352 350 349 347 346 346 345 345 345 345 346 347 349 350 350 351 352 353 352 350 348 350 352 351 350 350 351 350 349 349 350 350 352 353 351 348 345 344 344 345 346 345 345 348 349 349 348 347 348 349
356 355 353 352 352 354 355 357 357 355 351 349 350 353 355 358 359 360 359 358 356 355 355 353 350 347 346 344 344 345 345 344 344 344 345 346 348 349 351 353 353 354 354 353 353 354 357 356 355 355 355 352 349 349 350 350 352 354 355 353 349 346 344 345 346 345 345 345 346 347 347 347 347 348
356 354 352 351 351 352 354 354 354 350 346 346 346 347 348 350 352 354 355 354 354 353 351 349 347 346 346 346 347 346 345 345 346 347 349 350 352 353 355 356 356 355 356 355 356 357 358 357 357 357 356 354 351 350 349 348 350 353 354 353 351 349 346 345 345 345 345 345 344 345 345 345 346 347
355 353 352 351 349 351 353 353 352 350 350 350 349 348 347 347 348 349 350 352 352 353 353 351 350 350 349 350 351 350 350 353 355 357 358 357 356 356 357 357 357 357 357 356 357 357 357 356 356 356 356 354 351 349 349 349 350 351 352 352 353 353 351 348 346 345 345 345 345 344 344 345 345 346
355 355 354 353 352 352 352 353 353 354 355 356 354 352 351 349 349 349 348 349 350 352 354 355 354 353 353 354 356 356 357 360 361 362 362 360 359 359 359 358 359 359 359 358 358 358 357 357 356 356 355 354 351 350 350 350 351 352 353 354 355 355 354 352 349 346 345 346 346 345 345 345 345 346
357 356 356 357 356 355 355 355 356 356 357 359 361 361 358 356 355 354 352 352 352 352 352 354 355 355 355 356 357 358 358 360 360 360 360 360 360 360 359 359 359 360 360 360 360 360 359 357 356 356 354 353 352 350 350 351 351 352 353 354 355 356 356 353 350 348 346 346 347 347 346 345 345 345
356 356 357 359 359 358 359 360 360 361 361 361 361 361 361 359 358 357 355 355 356 355 354 354 356 356 355 356 356 356 355 355 355 355 355 356 356 357 357 357 358 359 359 358 358 358 357 355 354 354 353 352 352 351 352 352 352 353 354 354 356 356 355 354 352 350 349 348 348 348 347 346 345 345
357 358 359 361 359 357 359 361 361 360 359 358 358 359 358 357 356 354 354 353 353 353 353 354 354 355 354 355 355 354 354 354 355 354 354 355 355 355 356 357 356 356 356 355 355 356 356 355 355 355 355 355 355 355 355 354 354 354 355 354 355 355 356 356 354 354 352 351 350 349 348 348 348 346
357 356 359 360 357 355 357 360 359 357 355 355 358 360 358 357 356 354 354 354 353 352 354 355 355 355 355 355 355 354 355 356 356 356 356 357 357 356 357 357 356 355 355 354 355 356 356 356 356 356 356 356 356 356 356 355 355 356 356 355 356 356 356 356 356 356 356 355 354 354 352 351 350 349
353 351 356 359 356 356 357 356 356 355 353 354 356 358 357 357 357 355 354 355 355 355 356 356 355 355 355 354 355 355 356 356 356 356 356 357 357 357 357 357 356 356 356 356 356 357 358 357 357 357 357 357 357 357 357 356 356 357 358 357 357 357 356 356 356 357 357 357 358 357 356 354 353 352
349 349 352 352 352 353 353 352 352 351 350 350 350 351 353 355 356 354 352 351 351 351 352 353 353 353 354 354 356 357 356 357 357 356 355 356 357 357 357 357 357 357 357 356 357 358 358 357 358 358 357 356 357 357 358 357 356 356 357 357 357 357 357 358 358 358 358 359 358 358 357 356 355 354
347 348 349 348 347 347 344 343 344 344 344 343 341 342 347 350 347 342 339 336 335 338 343 345 346 348 350 352 353 354 354 357 357 354 353 354 356 356 356 356 356 356 356 356 356 356 357 357 357 358 357 357 357 357 358 358 357 357 357 357 357 357 357 357 358 359 359 359 359 358 357 357 356 356
345 347 348 348 347 343 339 337 335 333 333 332 330 333 336 333 328 325 323 321 324 330 336 339 339 340 341 343 343 344 347 352 353 352 351 352 352 352 353 355 356 355 355 355 354 355 356 357 357 357 357 356 356 356 357 357 358 358 357 357 357 357 357 357 357 356 357 358 358 358 358 358 357 356
343 345 347 348 345 341 336 332 327 325 324 324 323 324 324 321 320 320 318 320 328 337 339 338 340 341 341 342 343 343 345 347 349 350 350 350 350 349 350 353 354 353 353 352 352 353 355 356 355 355 356 356 356 357 357 358 358 357 357 357 357 358 357 358 358 356 355 356 357 357 358 358 357 356
342 343 344 345 342 334 327 324 323 322 321 320 320 320 320 321 320 318 320 329 339 345 346 344 345 346 345 346 346 346 347 346 347 348 348 348 349 349 349 350 351 351 351 352 352 353 354 355 355 355 354 354 356 357 357 356 357 357 356 357 357 357 357 357 359 358 356 356 356 357 357 357 358 357
340 339 337 336 333 327 322 321 320 319 319 319 318 319 322 323 318 318 330 343 347 347 347 346 345 345 345 346 346 346 346 346 346 347 347 347 349 349 349 350 351 351 351 352 352 352 353 354 355 355 354 352 354 356 356 356 356 356 355 356 356 356 356 356 358 358 357 356 357 357 357 357 357 358
332 330 327 325 323 321 320 319 318 321 325 324 320 319 321 320 319 326 339 346 346 345 345 343 343 344 343 344 344 345 346 347 347 347 347 348 348 348 348 349 350 350 350 350 350 351 352 353 354 353 352 351 353 355 355 356 356 356 354 355 356 356 355 355 357 357 356 355 355 356 356 357 357 358
321 321 320 318 317 316 315 315 316 322 326 325 322 322 324 327 331 338 343 343 342 343 342 341 342 342 343 343 344 344 344 345 345 345 345 345 346 346 346 346 347 348 349 349 349 350 350 351 351 350 349 350 352 353 354 354 355 355 354 354 354 354 354 356 356 355 354 354 354 354 355 356 356 357
317 315 313 312 312 313 315 317 318 320 324 327 330 332 334 337 341 343 341 339 340 342 342 342 342 342 342 343 343 342 342 342 341 342 343 343 343 342 343 343 343 343 344 345 346 347 348 348 348 347 348 348 350 351 351 352 353 353 354 354 353 353 354 355 355 355 355 355 354 354 355 355 354 355
313 312 314 317 323 328 330 330 329 329 332 336 337 337 337 337 338 338 338 338 339 340 339 339 340 340 339 339 339 339 339 339 339 339 340 340 340 340 341 341 340 340 340 341 341 342 343 344 344 344 345 346 347 347 348 349 350 351 352 353 353 353 354 354 355 356 355 354 354 354 353 353 353 354
314 319 326 331 334 336 335 334 334 334 336 337 337 337 336 334 334 336 338 337 337 336 336 336 336 336 335 335 335 336 335 335 335 335 335 336 337 339 339 338 338 337 337 337 336 337 338 339 340 341 341 342 343 344 345 346 348 348 349 351 352 353 353 352 352 351 350 350 351 351 350 350 352 353
320 328 334 334 333 332 330 330 333 334 334 334 335 336 336 334 334 336 336 335 334 333 333 334 333 332 332 333 333 333 333 333 332 331 332 333 335 336 336 335 335 335 335 335 335 336 336 336 337 338 337 335 335 336 339 343 345 345 346 347 349 349 347 346 344 343 343 344 346 346 345 346 348 351
324 333 333 330 330 332 330 330 332 331 331 332 333 333 333 333 334 335 333 333 333 333 331 330 330 330 330 331 331 331 331 329 328 328 329 330 331 331 332 332 332 333 334 334 334 334 335 336 336 334 331 330 330 330 333 336 340 342 342 343 344 342 340 338 337 336 337 337 338 338 339 340 342 346
328 332 330 329 331 331 330 331 332 332 332 333 334 333 333 333 334 333 331 330 331 331 329 328 328 328 328 328 328 328 327 327 327 327 327 328 328 329 329 329 329 330 331 331 331 332 332 332 330 328 328 330 331 332 331 332 336 340 340 338 337 335 333 331 330 330 331 331 331 332 335 336 336 339
330 330 328 330 330 329 329 331 331 332 333 333 333 333 333 333 332 331 329 328 328 327 326 325 325 325 326 326 326 325 325 326 326 327 327 327 327 328 328 328 328 328 328 328 328 328 328 327 326 326 328 330 331 332 332 332 335 338 336 332 329 327 325 325 326 327 329 331 331 332 333 334 335 337
329 328 327 328 328 328 330 330 330 330 331 330 330 330 329 329 329 327 326 326 325 324 324 324 324 324 324 324 324 324 324 325 325 326 326 326 326 326 326 326 326 326 327 326 326 325 325 325 326 327 328 330 330 330 331 331 332 332 329 326 325 325 325 327 329 331 333 335 335 334 334 333 334 334
326 326 326 326 327 327 328 327 327 327 326 326 326 326 325 325 325 324 323 323 323 322 322 322 322 322 322 322 323 323 323 323 323 324 324 324 324 324 324 324 324 324 324 324 323 323 323 325 326 326 327 328 328 327 327 327 327 327 326 326 327 329 330 332 333 334 334 334 333 332 330 330 330 330
323 324 324 324 325 324 324 323 323 323 323 323 323 322 322 322 322 321 321 321 320 320 320 320 320 320 321 321 321 321 321 321 321 322 322 322 322 322 322 322 321 321 321 321 321 322 323 323 324 324 324 324 324 324 325 325 325 326 327 328 329 330 331 331 331 331 331 330 328 328 329 330 331 331
322 322 322 321 321 321 321 321 320 320 320 320 320 319 319 319 319 319 319 318 318 319 319 319 319 319 319 319 319 319 319 319 319 319 319 320 320 320 319 318 318 318 319 320 320 321 321 322 322 321 321 322 322 323 324 324 325 325 325 326 326 326 326 327 327 327 327 327 327 328 328 328 328 328
320 320 319 318 318 318 318 318 318 318 317 317 317 317 317 317 317 317 317 317 317 318 317 317 317 317 317 317 317 317 317 317 317 318 318 317 317 316 316 316 316 317 318 319 319 319 319 319 320 320 320 321 322 322 323 324 324 324 324 324 324 325 325 325 325 325 326 326 326 326 326 326 326 327
317 317 317 316 316 316 316 316 316 315 315 315 315 315 315 315 316 315 315 316 316 315 315 315 315 315 315 315 315 315 315 315 315 314 314 314 314 314 314 315 316 316 316 317 317 317 317 317 317 318 318 319 320 321 322 322 323 323 323 323 323 323 323 323 323 323 323 323 324 324 325 326 327 327
315 315 315 315 314 314 314 314 314 314 314 313 313 313 314 314 314 314 314 314 313 313 312 312 312 312 312 312 311 311 311 311 310 310 310 311 312 312 313 313 313 313 313 314 314 314 315 315 315 316 316 317 317 318 318 319 319 320 320 320 321 321 320 321 321 321 322 323 323 323 324 324 325 326
313 313 313 313 313 313 313 313 312 312 312 312 312 312 312 312 312 311 311 311 310 310 310 309 309 309 308 308 307 307 307 307 307 308 308 309 309 309 309 310 310 310 311 311 311 312 312 312 313 313 314 314 315 315 316 316 317 317 317 318 318 318 318 319 319 319 319 319 320 320 321 321 321 321
Wind_Speed
5 5 5 4 5 5 4 5 4 1 2 3 3 3 2 1 2 3 3 4 6 8 6 0 3 2 4 4 6 8 7 6 7 8 8 9 9 11 15 15 9 8 7 4 4 5 5 5 5 5 5 5 4 4 4 4 3 3 3 4 4 5 5 6 6 5 2 1 4 7 9 12 15 16
6 5 5 4 5 5 4 5 5 2 1 4 4 4 2 1 2 3 3 4 6 8 10 7 2 2 5 4 5 8 6 6 9 9 9 10 11 14 16 14 10 8 7 6 6 6 6 6 6 6 7 7 7 7 6 6 5 5 4 3 3 4 4 4 5 5 4 2 2 4 6 9 11 14
5 5 5 5 5 5 5 5 6 4 3 4 5 5 4 3 4 4 4 4 6 8 10 10 8 7 7 6 7 8 7 8 10 9 10 11 13 16 15 13 12 9 7 8 8 8 8 7 7 7 8 8 8 8 8 8 8 7 6 5 4 4 4 4 4 4 4 4 3 2 4 6 8 11
4 4 5 5 5 6 6 6 6 6 5 5 5 6 5 5 5 5 5 5 6 8 9 10 10 9 9 8 7 7 8 9 9 10 11 12 13 15 13 11 11 9 8 7 9 11 9 8 9 9 9 9 10 10 10 10 10 9 9 8 7 6 5 5 5 4 4 4 4 3 3 4 6 8
5 4 5 6 6 6 6 7 7 7 6 6 6 6 5 5 5 4 4 6 7 8 8 9 9 9 9 9 7 8 9 9 9 10 11 12 12 11 10 11 10 9 8 7 10 13 11 9 10 10 11 11 11 12 12 12 12 12 11 10 9 8 7 7 6 6 6 5 5 5 4 4 4 6
6 5 6 7 7 7 7 7 8 7 7 6 6 5 5 4 4 3 3 5 7 8 7 8 8 8 8 8 7 7 8 8 9 9 10 11 11 10 9 10 10 9 6 8 13 14 11 11 11 11 12 12 12 13 13 13 13 13 13 12 12 11 10 9 8 8 7 7 7 7 6 5 5 5
8 7 7 7 7 7 7 7 7 6 6 6 6 5 5 5 5 4 3 4 6 8 8 8 8 7 7 8 8 7 8 8 8 9 10 11 11 11 10 11 10 8 7 13 16 13 10 11 11 11 11 12 13 13 13 12 12 12 13 13 13 13 12 11 10 10 9 9 9 9 8 7 6 6
8 8 8 8 8 7 6 6 6 6 6 5 5 5 5 5 5 5 5 5 6 7 8 8 9 8 8 8 8 8 8 9 9 10 11 11 12 11 11 12 12 10 13 18 15 11 11 13 11 10 12 13 13 12 12 13 13 13 13 13 14 14 14 13 13 12 11 11 11 11 10 10 9 8
8 8 8 8 7 7 7 7 7 6 6 5 5 6 5 5 5 5 5 6 6 8 9 9 9 9 9 8 8 8 9 9 10 11 11 12 12 11 12 13 13 14 17 17 11 12 16 15 11 11 14 15 13 13 12 12 13 13 13 13 14 14 14 14 14 14 13 13 13 13 13 12 12 11
9 9 9 8 8 8 8 7 7 6 6 6 7 6 6 6 6 6 7 7 7 8 9 10 10 9 9 8 8 8 9 10 11 11 12 12 11 11 13 13 13 14 16 15 13 16 18 15 12 15 17 16 15 14 13 12 12 12 11 12 12 13 13 14 15 15 15 15 14 15 15 15 14 13
10 10 10 9 9 9 9 8 7 6 6 7 7 7 6 6 6 7 7 7 8 9 9 10 10 10 9 10 10 10 10 10 10 11 12 12 12 12 13 14 14 14 15 15 16 16 14 13 15 19 18 16 16 16 14 14 13 11 10 9 10 11 13 14 15 16 16 16 16 16 16 16 16 16
10 10 10 10 10 10 9 9 8 6 5 6 6 6 6 6 7 7 8 8 8 9 10 10 10 10 11 11 11 11 10 10 10 11 12 12 12 13 14 14 15 15 16 16 16 15 14 14 17 19 18 17 18 18 17 17 15 11 9 9 9 11 13 14 16 16 17 17 18 17 17 17 18 18
10 11 11 10 10 10 9 9 10 8 7 7 6 6 6 6 7 7 8 8 8 9 10 10 10 11 11 12 12 11 10 11 13 13 12 11 12 14 16 17 16 16 17 17 17 16 16 17 18 18 17 18 19 19 19 19 16 13 11 11 12 14 15 15 15 16 16 17 18 18 18 18 19 19
10 11 11 11 11 11 10 11 13 13 12 11 10 9 8 8 7 8 8 9 9 9 10 11 11 12 12 12 12 12 12 13 14 13 12 13 15 15 16 18 18 17 16 17 18 18 18 18 19 19 18 17 17 17 18 17 15 13 12 12 15 17 17 16 15 15 16 16 17 18 19 19 19 19
11 11 11 11 12 12 11 12 14 13 12 12 13 13 13 12 12 11 11 10 10 11 11 12 12 12 13 13 14 14 15 15 14 15 15 15 16 15 14 16 19 18 16 17 19 21 21 20 20 20 18 17 17 16 16 15 13 12 13 15 17 18 17 17 16 16 16 16 16 17 18 19 19 20
11 11 11 12 12 10 10 11 12 11 10 10 12 13 14 14 14 15 14 14 13 12 12 12 12 13 14 14 15 16 17 17 16 16 16 16 16 17 16 16 18 19 19 20 21 23 24 22 21 21 19 18 17 16 16 16 16 16 17 18 18 17 17 18 18 18 17 17 17 17 18 19 19 20
12 12 12 11 10 7 7 9 10 11 11 11 11 13 14 14 15 16 16 17 17 15 14 14 14 14 15 16 17 17 17 17 17 17 16 16 15 16 17 18 21 23 23 22 22 23 23 21 20 21 19 18 18 18 17 17 18 19 19 18 17 18 18 18 18 18 18 18 18 17 18 19 20 20
11 11 11 11 10 8 6 7 9 9 9 9 10 11 13 14 15 15 16 16 17 16 16 16 16 15 16 16 17 17 16 16 17 16 16 16 15 17 19 21 23 24 23 22 22 21 21 20 19 20 20 19 20 20 18 17 17 18 18 18 18 18 18 18 17 17 18 18 18 19 18 19 20 21
12 12 12 10 8 6 4 4 7 7 6 6 8 10 13 14 14 14 14 14 13 13 15 17 17 16 16 16 18 19 19 19 20 20 20 19 17 18 20 20 21 20 19 18 18 18 19 20 19 20 20 20 20 20 19 19 18 17 17 18 19 17 16 17 17 16 17 18 19 19 19 19 19 20
13 11 10 8 4 3 3 3 6 7 8 8 9 11 12 13 14 14 14 13 12 13 15 16 17 17 16 18 20 21 20 19 19 20 20 19 16 16 17 17 17 18 17 16 16 16 18 20 19 19 19 19 20 21 20 20 18 17 18 19 18 17 16 17 17 16 16 17 18 20 20 20 20 19
8 5 3 2 1 2 3 4 6 7 8 7 8 10 11 11 13 14 14 13 13 13 14 15 16 17 18 20 21 20 19 17 17 17 16 15 14 14 15 15 15 17 17 16 16 16 17 18 18 19 19 19 20 20 19 19 18 16 16 16 16 16 17 18 17 17 16 17 18 19 20 21 21 20
2 3 2 3 1 2 2 3 5 6 7 6 6 9 10 11 12 12 11 11 11 12 13 15 16 18 21 22 22 21 20 17 16 16 16 16 15 15 15 15 16 17 15 13 13 15 17 18 19 19 20 20 19 18 17 18 18 17 16 16 17 18 19 19 18 18 18 18 18 19 19 20 21 21
5 3 4 3 2 2 2 4 7 7 7 7 6 7 9 9 9 9 10 11 12 14 15 16 17 18 20 20 20 19 18 15 15 15 15 17 17 16 15 16 16 14 12 12 14 16 17 19 18 17 17 16 17 17 16 17 18 18 18 19 20 20 20 20 20 20 20 20 19 18 18 18 19 21
2 1 4 3 2 3 4 5 6 7 7 6 6 6 7 7 8 10 12 14 14 14 15 14 15 15 15 15 16 15 14 12 11 11 11 12 14 14 14 14 14 14 14 16 18 18 17 18 18 17 16 14 16 18 18 18 18 19 19 19 20 20 20 20 21 20 20 20 21 20 19 18 18 20
3 3 2 1 4 6 7 7 6 6 6 6 5 5 5 7 9 11 13 14 13 13 12 12 12 12 12 13 13 12 11 8 7 8 11 11 12 12 13 14 15 16 18 18 18 18 18 18 18 18 18 16 17 20 21 20 20 19 18 18 18 19 19 19 20 20 19 20 22 21 20 20 20 20
2 1 1 4 8 8 8 7 7 7 7 7 7 7 7 7 9 10 12 13 11 10 9 9 10 11 11 12 11 10 10 9 9 10 12 12 13 14 14 14 15 17 18 17 17 18 18 19 18 18 18 18 19 20 20 20 19 18 18 17 16 17 18 17 17 19 20 20 21 20 20 20 21 22
4 2 1 5 9 8 7 7 8 8 8 9 11 11 9 8 10 11 12 12 9 8 7 8 9 9 10 10 9 9 9 10 11 12 13 13 13 13 14 14 16 17 18 18 18 17 17 18 18 17 17 18 19 18 18 19 19 19 20 19 17 17 17 15 15 17 19 19 20 21 22 22 22 22
2 3 4 7 10 9 8 9 10 10 11 11 12 12 11 11 12 12 10 8 8 8 8 8 8 8 9 9 10 10 11 12 13 13 13 13 13 13 15 15 16 16 17 18 18 16 15 16 16 16 16 17 17 18 19 19 20 21 21 21 19 17 17 17 16 17 18 19 21 22 22 22 22 21
2 4 7 8 10 11 11 11 12 11 12 12 12 11 11 11 11 10 7 7 8 8 8 8 8 8 9 10 12 12 12 12 12 12 12 12 12 14 15 15 16 16 16 16 16 14 13 13 13 15 17 17 16 18 20 21 22 22 22 21 21 19 19 17 15 17 20 22 22 22 21 21 21 21
3 5 7 8 9 10 11 12 12 11 11 12 11 10 8 8 8 7 6 6 7 8 8 8 8 9 10 11 12 12 11 11 11 11 12 12 13 13 14 16 16 16 15 14 14 13 13 12 12 13 16 16 15 16 18 20 21 22 21 21 21 21 19 16 14 18 22 23 23 24 24 24 23 22
5 6 7 8 8 9 9 10 10 10 9 8 8 7 7 7 7 6 6 6 6 7 8 8 8 9 10 11 11 11 11 11 11 11 11 12 13 14 15 16 16 15 15 14 13 13 13 13 12 12 13 15 16 17 18 19 20 22 21 20 20 21 19 18 17 18 19 21 23 24 23 24 24 23
5 6 6 6 7 7 7 7 7 7 6 5 6 6 6 6 7 5 5 5 4 6 8 8 9 10 10 11 11 11 11 12 11 11 12 12 14 14 14 15 16 16 15 15 14 15 15 15 15 15 15 16 17 19 20 20 20 21 21 21 20 20 19 18 16 15 16 20 22 22 22 23 24 24
5 5 6 6 7 7 7 6 6 5 4 4 5 5 4 4 5 3 3 4 4 6 8 8 9 10 10 11 11 11 11 11 11 12 14 14 14 14 14 15 16 16 16 17 17 17 17 18 18 19 19 19 20 21 22 22 21 20 19 19 19 18 16 15 14 16 20 21 21 23 25 26 24 23
6 6 7 6 5 4 5 5 4 3 3 3 4 4 4 5 3 1 5 6 5 7 8 9 9 10 11 11 12 12 12 12 13 14 15 15 15 14 15 15 16 15 17 18 18 18 19 20 20 19 20 21 23 23 23 23 22 21 19 18 17 17 17 16 16 19 22 21 21 23 26 27 26 25
6 6 6 4 3 2 3 3 3 3 3 3 4 5 6 5 2 8 10 9 7 8 9 10 11 11 12 12 13 13 13 15 16 16 15 15 15 15 15 16 16 16 17 17 18 18 19 19 19 20 22 23 23 21 20 20 20 20 20 19 18 18 19 19 20 23 23 23 25 26 27 28 28 26
6 5 4 4 3 3 3 3 3 4 3 3 5 6 6 5 4 10 11 10 9 9 10 11 11 12 12 13 13 14 15 16 16 16 15 15 15 15 16 16 16 17 17 17 18 18 18 19 20 21 22 20 16 14 16 16 15 15 16 18 18 19 22 25 27 28 28 27 27 27 27 27 29 28
6 4 3 3 3 3 3 4 4 4 4 5 6 7 7 6 4 7 9 10 9 9 10 10 11 12 13 13 14 14 15 15 15 15 15 15 15 16 16 16 16 17 18 18 18 19 20 20 21 20 19 15 10 10 14 18 15 12 14 19 22 26 30 32 32 31 29 27 26 26 25 26 28 28
4 3 2 2 2 3 3 4 4 4 4 5 6 7 8 8 8 8 9 9 9 10 11 11 11 12 13 14 14 14 14 14 14 15 15 15 16 16 16 17 18 18 18 19 20 20 20 20 20 19 17 14 10 9 13 18 21 22 24 27 30 33 34 31 29 28 26 24 24 24 25 27 30 32
4 3 3 3 3 3 4 4 5 4 5 5 6 6 7 8 9 9 9 9 9 10 11 11 12 12 13 13 13 14 14 14 15 15 15 15 16 16 17 18 18 19 20 21 21 21 20 19 18 18 18 17 16 17 20 24 28 33 36 34 32 32 31 28 25 25 25 25 26 28 30 32 33 34
2 3 4 4 4 4 4 4 5 5 5 6 6 6 7 8 9 9 9 10 10 11 11 12 12 13 13 13 14 14 14 15 15 15 16 17 17 17 17 18 19 20 21 22 21 20 19 19 19 21 24 26 26 28 29 30 30 32 33 30 27 26 26 25 25 27 28 29 30 31 31 31 31 31
5 5 5 5 5 4 4 5 5 6 6 6 7 7 8 8 8 9 10 10 11 11 12 12 13 13 13 14 14 15 15 16 16 16 17 17 17 18 19 20 21 21 21 21 21 20 20 21 23 26 28 28 27 27 25 23 23 25 27 27 26 27 28 28 29 31 32 32 31 30 30 30 32 33
3 3 3 4 4 4 4 5 5 6 6 7 7 8 8 8 9 9 10 10 11 11 12 12 13 13 14 14 14 15 16 16 16 17 17 18 19 20 21 21 21 20 20 21 22 22 23 24 26 26 25 24 24 23 21 20 22 25 27 27 28 29 30 30 30 31 33 35 34 33 33 32 28 26
3 3 3 3 4 5 5 5 5 6 7 7 8 8 9 9 9 9 10 10 10 11 12 12 13 13 14 14 14 15 15 16 17 18 19 19 20 20 21 20 20 21 22 23 23 24 25 25 25 25 25 24 23 22 22 24 25 26 27 27 28 29 30 32 34 35 35 36 36 35 36 35 29 26
3 3 4 4 5 5 5 6 6 7 7 8 8 9 9 9 9 10 10 11 11 11 12 12 13 13 14 14 15 15 15 16 18 19 19 19 19 19 20 20 21 21 22 23 24 24 24 24 24 24 24 24 24 23 25 26 27 27 28 29 29 31 32 32 33 34 34 33 32 31 34 36 36 37
4 4 5 5 6 6 6 7 7 7 8 8 8 9 9 9 9 10 10 10 11 11 12 12 12 13 13 15 15 16 16 17 18 18 18 18 18 19 20 20 21 21 21 22 23 24 24 24 24 23 23 24 24 24 25 27 27 28 29 29 29 29 30 30 31 33 34 36 36 34 35 38 41 44
Wind_Direction
260 255 248 252 269 283 293 285 283 311 333 305 288 298 342 40 316 311 318 320 303 302 312 312 128 183 245 289 294 276 268 265 293 316 311 306 299 303 319 317 317 341 340 320 305 300 310 314 304 297 290 282 283 282 289 299 311 331 342 349 352 0 10 18 23 21 8 253 232 228 231 231 229 227
263 268 268 267 271 278 277 269 272 266 241 267 272 284 300 273 286 305 311 304 300 307 314 317 1 304 286 311 320 308 300 290 308 318 311 311 305 303 309 298 288 315 334 334 324 303 300 302 298 295 286 281 281 276 276 278 279 289 294 304 318 328 338 349 3 9 9 356 280 239 233 233 232 232
261 267 273 280 280 281 285 279 278 276 258 265 274 274 280 277 283 297 293 293 308 311 308 312 319 314 317 337 327 318 317 306 313 321 314 312 308 307 308 291 277 287 308 326 333 322 304 291 289 289 284 282 280 276 276 274 271 272 274 275 281 289 300 309 321 336 348 354 338 287 246 237 235 235
253 258 265 273 275 277 282 278 272 271 263 264 274 276 283 285 279 281 284 291 304 306 305 311 316 321 328 331 322 319 315 308 315 322 315 311 307 308 314 303 285 283 288 307 332 332 316 296 289 286 285 284 281 278 275 272 271 268 266 266 266 268 274 280 288 296 309 324 331 325 286 253 244 240
246 245 253 260 264 265 269 273 271 271 265 256 258 262 266 273 278 282 286 291 298 304 310 312 314 321 325 321 318 317 311 310 317 317 313 309 302 306 320 311 288 274 277 302 329 332 323 308 297 288 286 284 280 280 277 272 270 267 265 264 262 262 262 264 270 274 278 289 300 310 309 287 263 251
238 239 246 250 254 253 254 262 267 270 272 267 263 265 268 279 293 301 289 291 298 303 310 311 309 313 315 312 314 314 309 311 312 310 308 308 306 311 322 316 290 262 271 314 325 324 322 318 310 298 291 287 284 283 279 275 270 265 264 263 261 261 260 259 262 264 266 269 275 283 291 295 287 271
232 234 240 245 247 248 249 254 263 269 275 282 287 291 297 302 300 302 296 287 292 299 307 310 308 313 314 309 311 311 308 311 311 310 310 309 312 315 318 320 303 268 286 315 313 310 316 318 315 309 304 299 294 289 284 280 275 268 264 261 260 260 259 259 259 259 260 260 260 266 271 278 284 283
229 231 235 240 241 244 246 249 258 265 265 273 280 279 283 284 281 284 284 278 285 294 300 304 308 313 311 306 309 312 313 315 312 311 312 310 312 313 313 318 311 295 307 311 300 297 314 313 305 309 314 311 305 297 290 284 279 275 269 264 261 259 257 258 258 258 259 258 256 256 259 263 267 273
230 234 236 238 238 237 240 244 249 254 255 258 267 269 269 272 277 283 285 284 289 291 294 301 304 302 301 301 308 312 312 314 312 312 311 307 308 311 310 314 317 315 318 315 301 303 312 303 291 302 312 310 306 304 299 291 286 281 275 269 265 260 257 255 255 256 257 257 256 253 252 255 257 260
231 235 238 239 240 240 240 243 244 249 254 257 263 268 269 275 281 284 284 284 285 285 288 293 294 295 299 303 308 311 310 309 308 309 309 308 311 314 312 313 317 317 318 318 311 306 303 294 293 307 308 302 302 305 303 300 296 288 281 276 269 263 259 255 252 252 253 255 256 254 252 251 252 253
229 232 236 235 235 238 241 245 247 250 255 259 263 267 271 278 282 282 284 285 285 287 287 289 294 301 308 310 310 310 303 298 297 303 308 309 311 313 311 309 311 312 312 311 308 307 305 301 304 308 304 297 298 299 298 301 300 290 281 280 276 271 265 260 256 252 251 252 253 255 253 250 250 251
233 233 234 233 232 232 232 238 243 247 256 264 268 269 270 276 280 282 287 288 288 291 292 296 302 306 306 303 302 301 298 298 301 303 302 304 306 308 307 305 306 308 308 307 307 311 315 311 307 306 301 297 298 294 290 292 290 279 273 279 286 285 277 270 265 259 255 253 252 254 254 251 250 250
238 237 238 240 238 231 224 227 232 239 251 259 265 274 279 283 284 283 284 286 288 290 291 294 298 297 295 294 297 303 307 305 302 300 299 302 305 305 303 301 300 302 303 305 306 306 307 308 307 306 300 295 296 293 287 283 276 267 266 276 291 296 287 278 273 268 262 257 254 253 254 252 250 250
242 241 243 244 240 233 228 233 240 249 256 254 253 260 266 270 275 280 281 281 283 285 286 289 292 293 295 300 305 307 306 303 302 307 311 309 305 302 300 297 297 299 300 302 302 299 299 303 304 302 298 295 296 295 288 281 271 260 260 274 292 297 288 279 276 274 269 264 258 255 254 253 252 250
242 246 247 244 240 235 233 244 252 255 253 249 248 252 256 259 261 265 270 274 278 281 282 285 290 295 299 304 306 304 305 309 312 313 311 307 304 302 299 295 297 300 302 303 301 298 297 300 300 298 297 297 297 294 289 287 280 266 264 277 290 295 289 280 275 274 272 269 264 260 256 254 253 252
243 248 248 248 247 232 220 235 246 243 243 249 253 253 255 256 257 257 259 262 266 272 280 286 289 294 300 304 305 305 310 314 313 308 304 302 301 299 295 293 296 301 306 306 300 296 297 299 300 298 296 296 298 295 292 291 287 279 277 280 286 293 295 287 277 273 272 271 268 265 261 257 255 254
239 245 249 255 261 246 221 230 236 233 243 257 261 261 263 262 260 261 260 261 262 265 273 282 285 291 298 301 301 303 307 309 306 304 303 305 307 304 302 302 302 303 304 302 296 293 295 298 298 296 297 301 301 297 293 288 283 280 280 280 284 294 299 294 282 274 271 270 269 268 265 261 259 257
242 245 250 251 254 257 252 244 241 240 246 255 261 265 267 266 263 265 267 268 266 266 268 270 274 283 290 292 298 306 309 307 307 308 308 310 311 307 302 301 300 299 299 297 294 293 294 297 297 296 299 303 302 300 301 298 292 287 284 284 287 292 298 297 288 277 272 271 271 270 269 266 263 260
243 241 245 247 251 266 269 228 227 237 247 262 276 278 275 276 276 278 283 281 275 274 274 271 272 280 289 295 303 311 311 307 306 305 303 303 302 299 297 296 295 296 297 296 294 293 298 302 301 301 305 308 306 306 306 304 301 297 295 293 290 288 293 297 293 283 276 274 271 270 270 269 266 263
245 243 245 248 262 298 305 259 237 245 257 271 291 295 291 292 290 290 296 298 291 287 285 284 283 285 293 301 306 309 311 311 310 308 306 303 296 289 289 292 293 296 300 303 302 300 304 308 309 309 313 316 312 308 306 305 303 298 296 294 289 284 288 294 293 288 284 280 276 273 272 270 269 267
242 250 253 242 264 267 267 266 260 264 276 288 304 304 300 299 297 298 306 309 305 298 295 297 298 295 300 307 309 310 309 309 309 306 302 301 299 292 289 291 294 297 300 307 313 311 308 312 316 317 317 317 314 309 308 312 311 304 301 299 291 288 291 294 291 286 285 285 284 281 278 275 272 269
67 66 59 89 93 256 253 285 290 292 298 304 315 314 310 307 308 315 326 329 323 313 304 306 309 307 308 311 310 309 309 309 306 296 288 291 298 300 299 299 302 304 304 310 320 319 314 315 318 318 316 312 309 307 309 314 316 317 317 313 303 297 296 295 292 287 284 286 287 287 286 281 275 272
52 48 14 56 64 308 298 302 302 301 299 302 312 316 312 307 308 317 324 325 322 316 311 310 309 307 307 307 306 306 309 311 307 300 294 291 291 293 297 301 305 307 306 314 322 321 316 314 315 316 316 310 307 308 310 311 312 313 313 311 305 301 298 297 297 291 284 282 284 285 287 284 279 275
86 71 17 33 30 355 335 315 310 307 305 309 315 314 310 306 306 310 312 314 315 313 310 307 305 302 302 303 302 302 302 300 298 307 313 304 293 291 292 296 298 294 293 303 313 314 310 308 307 308 307 301 302 307 309 309 309 308 308 306 303 302 301 300 301 297 287 285 286 284 281 280 278 276
105 96 61 326 307 328 330 326 327 323 316 317 315 306 299 302 310 315 316 319 320 315 307 305 307 307 307 307 305 306 310 311 313 328 333 327 318 309 299 294 294 293 294 302 308 308 305 304 304 304 303 299 300 305 308 308 306 306 307 306 304 304 304 302 302 303 297 292 290 284 276 275 277 277
171 141 103 284 293 310 319 317 318 319 316 314 307 296 295 309 321 324 323 322 317 309 307 311 313 314 313 312 313 318 324 327 331 334 330 325 321 314 304 296 292 293 298 304 307 305 301 299 301 305 307 307 304 304 303 303 305 308 309 307 306 306 307 303 301 304 306 306 304 297 287 281 281 278
273 245 222 269 280 298 316 314 311 310 306 304 302 299 300 312 322 327 329 321 304 296 308 315 314 314 315 316 320 327 330 329 330 329 320 314 312 308 303 298 292 292 297 301 301 299 295 295 299 303 305 306 304 300 299 302 307 311 310 308 307 307 308 307 304 309 314 310 302 296 292 289 286 281
305 266 255 267 280 293 300 298 298 299 298 299 299 294 294 302 314 324 327 312 297 301 311 312 311 315 321 324 326 327 327 323 322 320 316 316 316 311 308 306 301 299 299 298 298 299 299 300 303 302 301 302 300 298 300 302 304 305 308 310 309 308 309 309 307 308 307 297 287 289 294 294 292 288
247 260 269 281 291 294 292 292 294 295 297 299 297 293 295 302 310 313 306 299 305 310 308 310 316 319 323 326 326 327 328 325 322 325 329 329 324 317 317 319 315 309 305 301 303 308 314 317 317 314 311 310 305 299 301 303 303 305 309 310 308 308 310 309 306 304 303 299 296 297 297 294 293 295
285 290 292 292 291 288 286 287 287 283 283 289 296 302 304 303 297 287 283 297 309 307 304 312 319 319 321 324 323 326 328 324 322 328 330 327 322 320 321 322 318 312 308 308 310 315 321 324 327 327 325 321 313 305 306 308 306 305 306 306 306 308 309 307 303 302 303 305 306 303 298 295 296 297
310 301 295 293 291 291 288 284 282 279 276 285 297 299 292 285 277 269 276 294 305 315 323 326 324 324 326 324 321 321 321 319 320 323 325 323 320 319 318 315 312 310 310 310 311 314 316 316 317 321 322 318 312 308 308 307 304 303 303 303 303 305 306 310 312 309 308 311 312 308 305 303 302 299
307 298 297 296 289 283 281 280 281 277 269 280 296 294 288 287 278 271 288 303 321 351 355 347 338 334 328 323 321 320 320 322 324 325 326 322 316 314 314 311 307 308 310 310 311 312 311 309 308 309 309 306 303 303 302 298 295 296 299 301 303 303 305 311 316 317 318 318 315 311 307 304 302 299
312 297 289 280 268 264 267 269 268 262 252 262 275 272 281 291 279 283 331 340 352 4 356 341 332 329 324 320 319 317 318 322 325 325 323 317 312 310 309 306 305 308 310 311 310 311 310 307 306 304 301 298 296 294 292 290 288 289 291 296 300 302 303 307 310 311 313 313 309 306 305 302 299 295
309 290 275 265 252 251 263 268 276 292 303 301 292 273 260 261 256 50 34 18 13 3 347 335 331 329 325 321 319 318 322 324 323 322 319 315 312 310 308 307 308 310 310 309 310 312 312 312 311 309 305 303 298 290 283 279 281 286 289 291 295 297 299 303 306 307 306 303 299 297 296 294 291 288
299 284 280 288 291 286 283 280 293 319 318 310 318 311 282 271 21 56 44 24 8 349 333 332 334 329 324 322 322 324 325 322 319 318 317 315 314 312 310 310 311 311 311 311 312 314 315 317 320 318 313 309 304 296 288 281 278 283 288 290 294 299 303 306 308 306 302 298 294 291 288 288 287 285
314 302 302 317 322 318 321 327 339 343 335 328 340 334 307 298 24 42 31 13 358 341 329 327 328 324 320 321 323 324 323 320 317 318 317 317 316 313 311 311 311 312 314 313 314 318 320 321 321 316 310 308 306 303 303 301 291 286 295 304 307 309 310 308 305 300 295 292 290 286 283 284 285 284
312 313 309 312 322 328 330 337 347 349 344 345 351 350 340 329 345 14 14 4 348 333 327 324 322 320 320 322 322 321 319 317 317 317 318 318 317 315 315 315 315 316 315 314 316 318 317 315 313 308 304 305 305 299 305 312 311 304 311 319 317 310 307 303 299 295 292 290 288 285 283 284 286 287
294 310 320 309 324 345 347 348 348 336 325 330 335 339 340 334 328 338 351 345 330 324 326 324 320 319 320 320 318 317 316 316 317 318 318 318 318 319 319 318 317 317 316 315 315 313 311 308 307 307 307 310 310 307 311 315 312 303 302 305 303 298 296 293 290 291 293 292 292 292 292 291 290 291
281 320 341 326 329 349 353 353 350 336 323 325 325 323 328 331 328 328 330 327 325 326 323 318 315 316 316 316 315 315 316 318 318 317 316 317 318 318 317 316 316 316 315 312 309 308 308 307 307 314 321 320 315 311 307 304 300 296 296 297 294 288 284 282 285 291 295 297 299 299 297 294 292 291
331 5 5 359 355 351 341 340 341 334 325 324 324 322 323 325 326 324 321 320 322 319 314 312 314 316 316 317 319 320 319 319 320 319 318 317 316 315 317 318 316 313 309 305 304 305 306 307 309 316 319 314 307 303 298 292 288 289 291 295 295 292 290 292 296 297 296 296 297 297 296 296 296 296
33 28 20 14 1 342 335 340 341 333 325 320 316 316 318 319 319 318 314 312 312 311 311 313 315 316 319 320 322 323 321 320 319 317 316 316 315 316 319 318 313 308 305 304 305 305 305 307 309 310 308 305 301 299 295 289 288 290 293 295 297 297 297 297 296 295 295 297 298 297 296 296 296 295
10 347 353 355 339 327 327 331 328 321 318 318 317 318 318 314 312 312 312 314 316 316 316 318 319 320 321 321 323 324 322 320 319 318 319 319 317 316 316 313 309 308 307 307 306 307 307 309 310 308 306 304 302 299 295 293 295 297 298 298 298 297 297 297 296 295 296 297 295 291 289 290 290 289
320 308 315 315 317 319 317 316 318 317 315 316 318 319 316 312 313 316 319 322 324 324 323 325 328 327 326 325 327 327 324 323 324 323 321 318 315 312 311 309 309 310 309 307 306 308 309 310 311 310 308 306 303 300 298 298 299 299 299 300 301 302 302 300 298 296 294 290 287 284 282 282 280 280
321 310 310 307 310 313 310 311 315 314 314 315 315 313 313 315 317 320 322 324 327 328 327 328 329 328 328 330 331 329 326 324 322 319 315 313 312 311 311 311 312 311 309 309 309 309 310 311 312 312 309 306 305 304 302 301 301 301 301 302 302 302 302 301 299 299 298 294 291 290 288 286 284 284
316 308 309 306 304 303 303 307 311 312 315 316 314 313 315 316 317 320 324 326 329 328 326 327 328 329 330 330 328 324 322 319 317 314 313 312 312 312 311 311 311 310 310 310 310 310 311 312 312 311 309 307 306 305 303 302 302 301 301 302 302 302 304 305 305 305 301 297 294 293 292 290 288 287